Year,Month,Day,Hour,Minute,Value (Times are PST for temperature in C)
2006,07,08,00,00,15.50
2006,07,08,00,01,15.60
2006,07,08,00,02,15.60
2006,07,08,00,03,15.60
2006,07,08,00,04,15.60
2006,07,08,00,05,15.60
2006,07,08,00,06,15.60
2006,07,08,00,07,15.60
2006,07,08,00,08,15.60
2006,07,08,00,09,15.60
2006,07,08,00,10,15.60
2006,07,08,00,11,15.60
2006,07,08,00,12,15.60
2006,07,08,00,13,15.60
2006,07,08,00,14,15.60
2006,07,08,00,15,15.60
2006,07,08,00,16,15.60
2006,07,08,00,17,15.60
2006,07,08,00,18,15.60
2006,07,08,00,19,15.60
2006,07,08,00,20,15.60
2006,07,08,00,21,15.60
2006,07,08,00,22,15.50
2006,07,08,00,23,15.50
2006,07,08,00,24,15.50
2006,07,08,00,25,15.50
2006,07,08,00,26,15.50
2006,07,08,00,27,15.40
2006,07,08,00,28,15.40
2006,07,08,00,29,15.40
2006,07,08,00,30,15.30
2006,07,08,00,31,15.30
2006,07,08,00,32,15.30
2006,07,08,00,33,15.20
2006,07,08,00,34,15.20
2006,07,08,00,35,15.10
2006,07,08,00,36,15.10
2006,07,08,00,37,15.00
2006,07,08,00,38,15.00
2006,07,08,00,39,14.90
2006,07,08,00,40,14.90
2006,07,08,00,41,14.90
2006,07,08,00,42,14.90
2006,07,08,00,43,14.90
2006,07,08,00,44,14.90
2006,07,08,00,45,14.80
2006,07,08,00,46,14.80
2006,07,08,00,47,14.80
2006,07,08,00,48,14.80
2006,07,08,00,49,14.80
2006,07,08,00,50,14.80
2006,07,08,00,51,14.80
2006,07,08,00,52,14.80
2006,07,08,00,53,14.80
2006,07,08,00,54,14.70
2006,07,08,00,55,14.70
2006,07,08,00,56,14.70
2006,07,08,00,57,14.70
2006,07,08,00,58,14.70
2006,07,08,00,59,14.70
2006,07,08,01,00,14.70
2006,07,08,01,01,14.70
2006,07,08,01,02,14.70
2006,07,08,01,03,14.70
2006,07,08,01,04,14.70
2006,07,08,01,05,14.70
2006,07,08,01,06,14.70
2006,07,08,01,07,14.70
2006,07,08,01,08,14.70
2006,07,08,01,09,14.70
2006,07,08,01,10,14.70
2006,07,08,01,11,14.70
2006,07,08,01,12,14.70
2006,07,08,01,13,14.70
2006,07,08,01,14,14.70
2006,07,08,01,15,14.70
2006,07,08,01,16,14.70
2006,07,08,01,17,14.70
2006,07,08,01,18,14.70
2006,07,08,01,19,14.70
2006,07,08,01,20,14.70
2006,07,08,01,21,14.70
2006,07,08,01,22,14.70
2006,07,08,01,23,14.70
2006,07,08,01,24,14.70
2006,07,08,01,25,14.70
2006,07,08,01,26,14.70
2006,07,08,01,27,14.70
2006,07,08,01,28,14.70
2006,07,08,01,29,14.70
2006,07,08,01,30,14.70
2006,07,08,01,31,14.70
2006,07,08,01,32,14.70
2006,07,08,01,33,14.70
2006,07,08,01,34,14.70
2006,07,08,01,35,14.70
2006,07,08,01,36,14.70
2006,07,08,01,37,14.80
2006,07,08,01,38,14.80
2006,07,08,01,39,14.80
2006,07,08,01,40,14.80
2006,07,08,01,41,14.80
2006,07,08,01,42,14.80
2006,07,08,01,43,14.80
2006,07,08,01,44,14.80
2006,07,08,01,45,14.80
2006,07,08,01,46,14.80
2006,07,08,01,47,14.80
2006,07,08,01,48,14.80
2006,07,08,01,49,14.80
2006,07,08,01,50,14.80
2006,07,08,01,51,14.80
2006,07,08,01,52,14.80
2006,07,08,01,53,14.80
2006,07,08,01,54,14.90
2006,07,08,01,55,14.90
2006,07,08,01,56,14.90
2006,07,08,01,57,14.90
2006,07,08,01,58,15.00
2006,07,08,01,59,15.00
2006,07,08,02,00,15.00
2006,07,08,02,01,15.00
2006,07,08,02,02,15.10
2006,07,08,02,03,15.10
2006,07,08,02,04,15.10
2006,07,08,02,05,15.10
2006,07,08,02,06,15.10
2006,07,08,02,07,15.10
2006,07,08,02,08,15.10
2006,07,08,02,09,15.10
2006,07,08,02,10,15.10
2006,07,08,02,11,15.10
2006,07,08,02,12,15.10
2006,07,08,02,13,15.00
2006,07,08,02,14,15.00
2006,07,08,02,15,15.00
2006,07,08,02,16,15.00
2006,07,08,02,17,15.00
2006,07,08,02,18,14.90
2006,07,08,02,19,14.90
2006,07,08,02,20,14.80
2006,07,08,02,21,14.80
2006,07,08,02,22,14.80
2006,07,08,02,23,14.80
2006,07,08,02,24,14.80
2006,07,08,02,25,14.70
2006,07,08,02,26,14.70
2006,07,08,02,27,14.70
2006,07,08,02,28,14.70
2006,07,08,02,29,14.70
2006,07,08,02,30,14.60
2006,07,08,02,31,14.60
2006,07,08,02,32,14.60
2006,07,08,02,33,14.60
2006,07,08,02,34,14.60
2006,07,08,02,35,14.60
2006,07,08,02,36,14.60
2006,07,08,02,37,14.50
2006,07,08,02,38,14.50
2006,07,08,02,39,14.50
2006,07,08,02,40,14.50
2006,07,08,02,41,14.50
2006,07,08,02,42,14.50
2006,07,08,02,43,14.50
2006,07,08,02,44,14.50
2006,07,08,02,45,14.50
2006,07,08,02,46,14.50
2006,07,08,02,47,14.50
2006,07,08,02,48,14.40
2006,07,08,02,49,14.40
2006,07,08,02,50,14.40
2006,07,08,02,51,14.40
2006,07,08,02,52,14.40
2006,07,08,02,53,14.40
2006,07,08,02,54,14.40
2006,07,08,02,55,14.40
2006,07,08,02,56,14.40
2006,07,08,02,57,14.40
2006,07,08,02,58,14.40
2006,07,08,02,59,14.40
2006,07,08,03,00,14.40
2006,07,08,03,01,14.40
2006,07,08,03,02,14.40
2006,07,08,03,03,14.40
2006,07,08,03,04,14.40
2006,07,08,03,05,14.30
2006,07,08,03,06,14.30
2006,07,08,03,07,14.20
2006,07,08,03,08,14.20
2006,07,08,03,09,14.20
2006,07,08,03,10,14.20
2006,07,08,03,11,14.20
2006,07,08,03,12,14.20
2006,07,08,03,13,14.20
2006,07,08,03,14,14.20
2006,07,08,03,15,14.20
2006,07,08,03,16,14.20
2006,07,08,03,17,14.20
2006,07,08,03,18,14.20
2006,07,08,03,19,14.20
2006,07,08,03,20,14.20
2006,07,08,03,21,14.20
2006,07,08,03,22,14.20
2006,07,08,03,23,14.10
2006,07,08,03,24,14.10
2006,07,08,03,25,14.10
2006,07,08,03,26,14.10
2006,07,08,03,27,14.10
2006,07,08,03,28,14.10
2006,07,08,03,29,14.10
2006,07,08,03,30,14.00
2006,07,08,03,31,14.00
2006,07,08,03,32,14.00
2006,07,08,03,33,14.00
2006,07,08,03,34,14.00
2006,07,08,03,35,14.00
2006,07,08,03,36,13.90
2006,07,08,03,37,13.90
2006,07,08,03,38,13.90
2006,07,08,03,39,13.80
2006,07,08,03,40,13.70
2006,07,08,03,41,13.70
2006,07,08,03,42,13.70
2006,07,08,03,43,13.60
2006,07,08,03,44,13.50
2006,07,08,03,45,13.50
2006,07,08,03,46,13.40
2006,07,08,03,47,13.30
2006,07,08,03,48,13.30
2006,07,08,03,49,13.30
2006,07,08,03,50,13.20
2006,07,08,03,51,13.20
2006,07,08,03,52,13.10
2006,07,08,03,53,13.10
2006,07,08,03,54,13.00
2006,07,08,03,55,13.00
2006,07,08,03,56,13.00
2006,07,08,03,57,13.00
2006,07,08,03,58,12.90
2006,07,08,03,59,12.90
2006,07,08,04,00,12.90
2006,07,08,04,01,12.90
2006,07,08,04,02,12.90
2006,07,08,04,03,12.80
2006,07,08,04,04,12.80
2006,07,08,04,05,12.80
2006,07,08,04,06,12.80
2006,07,08,04,07,12.80
2006,07,08,04,08,12.80
2006,07,08,04,09,12.80
2006,07,08,04,10,12.80
2006,07,08,04,11,12.80
2006,07,08,04,12,12.80
2006,07,08,04,13,12.80
2006,07,08,04,14,12.80
2006,07,08,04,15,12.80
2006,07,08,04,16,12.80
2006,07,08,04,17,12.90
2006,07,08,04,18,12.90
2006,07,08,04,19,12.90
2006,07,08,04,20,12.90
2006,07,08,04,21,12.90
2006,07,08,04,22,12.90
2006,07,08,04,23,12.90
2006,07,08,04,24,13.00
2006,07,08,04,25,13.00
2006,07,08,04,26,13.00
2006,07,08,04,27,13.00
2006,07,08,04,28,13.00
2006,07,08,04,29,13.00
2006,07,08,04,30,13.00
2006,07,08,04,31,13.00
2006,07,08,04,32,12.90
2006,07,08,04,33,12.90
2006,07,08,04,34,12.90
2006,07,08,04,35,12.90
2006,07,08,04,36,12.80
2006,07,08,04,37,12.80
2006,07,08,04,38,12.80
2006,07,08,04,39,12.80
2006,07,08,04,40,12.70
2006,07,08,04,41,12.70
2006,07,08,04,42,12.60
2006,07,08,04,43,12.60
2006,07,08,04,44,12.60
2006,07,08,04,45,12.50
2006,07,08,04,46,12.50
2006,07,08,04,47,12.50
2006,07,08,04,48,12.40
2006,07,08,04,49,12.40
2006,07,08,04,50,12.40
2006,07,08,04,51,12.40
2006,07,08,04,52,12.40
2006,07,08,04,53,12.40
2006,07,08,04,54,12.40
2006,07,08,04,55,12.40
2006,07,08,04,56,12.40
2006,07,08,04,57,12.40
2006,07,08,04,58,12.40
2006,07,08,04,59,12.40
2006,07,08,05,00,12.40
2006,07,08,05,01,12.40
2006,07,08,05,02,12.40
2006,07,08,05,03,12.40
2006,07,08,05,04,12.40
2006,07,08,05,05,12.30
2006,07,08,05,06,12.30
2006,07,08,05,07,12.30
2006,07,08,05,08,12.40
2006,07,08,05,09,12.40
2006,07,08,05,10,12.40
2006,07,08,05,11,12.40
2006,07,08,05,12,12.40
2006,07,08,05,13,12.40
2006,07,08,05,14,12.40
2006,07,08,05,15,12.40
2006,07,08,05,16,12.40
2006,07,08,05,17,12.50
2006,07,08,05,18,12.50
2006,07,08,05,19,12.50
2006,07,08,05,20,12.50
2006,07,08,05,21,12.50
2006,07,08,05,22,12.60
2006,07,08,05,23,12.60
2006,07,08,05,24,12.60
2006,07,08,05,25,12.60
2006,07,08,05,26,12.60
2006,07,08,05,27,12.60
2006,07,08,05,28,12.70
2006,07,08,05,29,12.70
2006,07,08,05,30,12.70
2006,07,08,05,31,12.70
2006,07,08,05,32,12.70
2006,07,08,05,33,12.70
2006,07,08,05,34,12.70
2006,07,08,05,35,12.70
2006,07,08,05,36,12.70
2006,07,08,05,37,12.70
2006,07,08,05,38,12.70
2006,07,08,05,39,12.70
2006,07,08,05,40,12.70
2006,07,08,05,41,12.70
2006,07,08,05,42,12.70
2006,07,08,05,43,12.70
2006,07,08,05,44,12.70
2006,07,08,05,45,12.70
2006,07,08,05,46,12.70
2006,07,08,05,47,12.70
2006,07,08,05,48,12.70
2006,07,08,05,49,12.70
2006,07,08,05,50,12.70
2006,07,08,05,51,12.70
2006,07,08,05,52,12.80
2006,07,08,05,53,12.80
2006,07,08,05,54,12.80
2006,07,08,05,55,12.80
2006,07,08,05,56,12.80
2006,07,08,05,57,12.80
2006,07,08,05,58,12.80
2006,07,08,05,59,12.80
2006,07,08,06,00,12.90
2006,07,08,06,01,12.90
2006,07,08,06,02,12.90
2006,07,08,06,03,13.00
2006,07,08,06,04,13.00
2006,07,08,06,05,13.00
2006,07,08,06,06,13.10
2006,07,08,06,07,13.10
2006,07,08,06,08,13.20
2006,07,08,06,09,13.20
2006,07,08,06,10,13.20
2006,07,08,06,11,13.30
2006,07,08,06,12,13.30
2006,07,08,06,13,13.40
2006,07,08,06,14,13.40
2006,07,08,06,15,13.50
2006,07,08,06,16,13.60
2006,07,08,06,17,13.60
2006,07,08,06,18,13.70
2006,07,08,06,19,13.70
2006,07,08,06,20,13.80
2006,07,08,06,21,13.80
2006,07,08,06,22,13.90
2006,07,08,06,23,13.90
2006,07,08,06,24,13.90
2006,07,08,06,25,13.90
2006,07,08,06,26,14.00
2006,07,08,06,27,14.00
2006,07,08,06,28,14.00
2006,07,08,06,29,14.00
2006,07,08,06,30,14.10
2006,07,08,06,31,14.10
2006,07,08,06,32,14.10
2006,07,08,06,33,14.20
2006,07,08,06,34,14.20
2006,07,08,06,35,14.20
2006,07,08,06,36,14.30
2006,07,08,06,37,14.30
2006,07,08,06,38,14.40
2006,07,08,06,39,14.40
2006,07,08,06,40,14.50
2006,07,08,06,41,14.50
2006,07,08,06,42,14.60
2006,07,08,06,43,14.60
2006,07,08,06,44,14.60
2006,07,08,06,45,14.60
2006,07,08,06,46,14.60
2006,07,08,06,47,14.60
2006,07,08,06,48,14.60
2006,07,08,06,49,14.60
2006,07,08,06,50,14.60
2006,07,08,06,51,14.70
2006,07,08,06,52,14.70
2006,07,08,06,53,14.80
2006,07,08,06,54,14.80
2006,07,08,06,55,14.80
2006,07,08,06,56,14.90
2006,07,08,06,57,14.90
2006,07,08,06,58,15.00
2006,07,08,06,59,15.10
2006,07,08,07,00,15.10
2006,07,08,07,01,15.20
2006,07,08,07,02,15.30
2006,07,08,07,03,15.30
2006,07,08,07,04,15.40
2006,07,08,07,05,15.50
2006,07,08,07,06,15.60
2006,07,08,07,07,15.60
2006,07,08,07,08,15.60
2006,07,08,07,09,15.60
2006,07,08,07,10,15.70
2006,07,08,07,11,15.70
2006,07,08,07,12,15.70
2006,07,08,07,13,15.80
2006,07,08,07,14,15.80
2006,07,08,07,15,15.80
2006,07,08,07,16,15.80
2006,07,08,07,17,15.80
2006,07,08,07,18,15.80
2006,07,08,07,19,15.80
2006,07,08,07,20,15.80
2006,07,08,07,21,15.80
2006,07,08,07,22,15.80
2006,07,08,07,23,15.90
2006,07,08,07,24,15.90
2006,07,08,07,25,16.00
2006,07,08,07,26,16.10
2006,07,08,07,27,16.10
2006,07,08,07,28,16.10
2006,07,08,07,29,16.10
2006,07,08,07,30,16.10
2006,07,08,07,31,16.10
2006,07,08,07,32,16.10
2006,07,08,07,33,16.20
2006,07,08,07,34,16.20
2006,07,08,07,35,16.30
2006,07,08,07,36,16.30
2006,07,08,07,37,16.30
2006,07,08,07,38,16.40
2006,07,08,07,39,16.40
2006,07,08,07,40,16.40
2006,07,08,07,41,16.40
2006,07,08,07,42,16.50
2006,07,08,07,43,16.60
2006,07,08,07,44,16.60
2006,07,08,07,45,16.70
2006,07,08,07,46,16.80
2006,07,08,07,47,16.80
2006,07,08,07,48,16.90
2006,07,08,07,49,16.90
2006,07,08,07,50,17.00
2006,07,08,07,51,17.10
2006,07,08,07,52,17.20
2006,07,08,07,53,17.20
2006,07,08,07,54,17.30
2006,07,08,07,55,17.30
2006,07,08,07,56,17.30
2006,07,08,07,57,17.40
2006,07,08,07,58,17.40
2006,07,08,07,59,17.40
2006,07,08,08,00,17.40
2006,07,08,08,01,17.40
2006,07,08,08,02,17.50
2006,07,08,08,03,17.50
2006,07,08,08,04,17.50
2006,07,08,08,05,17.60
2006,07,08,08,06,17.60
2006,07,08,08,07,17.70
2006,07,08,08,08,17.70
2006,07,08,08,09,17.80
2006,07,08,08,10,17.90
2006,07,08,08,11,17.90
2006,07,08,08,12,17.90
2006,07,08,08,13,17.90
2006,07,08,08,14,17.90
2006,07,08,08,15,17.90
2006,07,08,08,16,18.00
2006,07,08,08,17,18.10
2006,07,08,08,18,18.20
2006,07,08,08,19,18.30
2006,07,08,08,20,18.40
2006,07,08,08,21,18.50
2006,07,08,08,22,18.60
2006,07,08,08,23,18.70
2006,07,08,08,24,18.80
2006,07,08,08,25,18.90
2006,07,08,08,26,18.90
2006,07,08,08,27,19.10
2006,07,08,08,28,19.10
2006,07,08,08,29,19.10
2006,07,08,08,30,19.20
2006,07,08,08,31,19.20
2006,07,08,08,32,19.30
2006,07,08,08,33,19.30
2006,07,08,08,34,19.40
2006,07,08,08,35,19.40
2006,07,08,08,36,19.40
2006,07,08,08,37,19.40
2006,07,08,08,38,19.50
2006,07,08,08,39,19.40
2006,07,08,08,40,19.30
2006,07,08,08,41,19.10
2006,07,08,08,42,19.00
2006,07,08,08,43,18.90
2006,07,08,08,44,18.70
2006,07,08,08,45,18.60
2006,07,08,08,46,18.50
2006,07,08,08,47,18.40
2006,07,08,08,48,18.30
2006,07,08,08,49,18.20
2006,07,08,08,50,18.10
2006,07,08,08,51,18.10
2006,07,08,08,52,18.00
2006,07,08,08,53,17.90
2006,07,08,08,54,18.10
2006,07,08,08,55,18.10
2006,07,08,08,56,18.10
2006,07,08,08,57,17.90
2006,07,08,08,58,17.80
2006,07,08,08,59,17.70
2006,07,08,09,00,17.60
2006,07,08,09,01,17.50
2006,07,08,09,02,17.50
2006,07,08,09,03,17.40
2006,07,08,09,04,17.30
2006,07,08,09,05,17.40
2006,07,08,09,06,17.50
2006,07,08,09,07,17.60
2006,07,08,09,08,17.70
2006,07,08,09,09,17.80
2006,07,08,09,10,17.80
2006,07,08,09,11,17.80
2006,07,08,09,12,17.90
2006,07,08,09,13,17.90
2006,07,08,09,14,17.90
2006,07,08,09,15,17.90
2006,07,08,09,16,17.80
2006,07,08,09,17,17.80
2006,07,08,09,18,17.80
2006,07,08,09,19,17.80
2006,07,08,09,20,17.80
2006,07,08,09,21,17.80
2006,07,08,09,22,17.80
2006,07,08,09,23,17.90
2006,07,08,09,24,17.90
2006,07,08,09,25,17.90
2006,07,08,09,26,17.90
2006,07,08,09,27,17.90
2006,07,08,09,28,17.90
2006,07,08,09,29,17.90
2006,07,08,09,30,17.90
2006,07,08,09,31,17.80
2006,07,08,09,32,17.80
2006,07,08,09,33,17.70
2006,07,08,09,34,17.70
2006,07,08,09,35,17.70
2006,07,08,09,36,17.60
2006,07,08,09,37,17.60
2006,07,08,09,38,17.60
2006,07,08,09,39,17.70
2006,07,08,09,40,17.70
2006,07,08,09,41,17.70
2006,07,08,09,42,17.80
2006,07,08,09,43,17.90
2006,07,08,09,44,17.90
2006,07,08,09,45,17.90
2006,07,08,09,46,18.00
2006,07,08,09,47,18.10
2006,07,08,09,48,18.00
2006,07,08,09,49,17.90
2006,07,08,09,50,17.90
2006,07,08,09,51,17.90
2006,07,08,09,52,17.90
2006,07,08,09,53,17.90
2006,07,08,09,54,17.90
2006,07,08,09,55,17.90
2006,07,08,09,56,17.90
2006,07,08,09,57,17.80
2006,07,08,09,58,17.70
2006,07,08,09,59,17.70
2006,07,08,10,00,17.60
2006,07,08,10,01,17.50
2006,07,08,10,02,17.50
2006,07,08,10,03,17.50
2006,07,08,10,04,17.50
2006,07,08,10,05,17.40
2006,07,08,10,06,17.40
2006,07,08,10,07,17.40
2006,07,08,10,08,17.40
2006,07,08,10,09,17.40
2006,07,08,10,10,17.40
2006,07,08,10,11,17.40
2006,07,08,10,12,17.30
2006,07,08,10,13,17.40
2006,07,08,10,14,17.40
2006,07,08,10,15,17.50
2006,07,08,10,16,17.50
2006,07,08,10,17,17.50
2006,07,08,10,18,17.50
2006,07,08,10,19,17.60
2006,07,08,10,20,17.70
2006,07,08,10,21,17.70
2006,07,08,10,22,17.80
2006,07,08,10,23,17.80
2006,07,08,10,24,17.70
2006,07,08,10,25,17.80
2006,07,08,10,26,17.80
2006,07,08,10,27,17.90
2006,07,08,10,28,17.90
2006,07,08,10,29,17.90
2006,07,08,10,30,17.90
2006,07,08,10,31,17.90
2006,07,08,10,32,17.90
2006,07,08,10,33,18.00
2006,07,08,10,34,18.10
2006,07,08,10,35,18.10
2006,07,08,10,36,18.20
2006,07,08,10,37,18.20
2006,07,08,10,38,18.40
2006,07,08,10,39,18.40
2006,07,08,10,40,18.50
2006,07,08,10,41,18.60
2006,07,08,10,42,18.70
2006,07,08,10,43,18.90
2006,07,08,10,44,18.90
2006,07,08,10,45,18.90
2006,07,08,10,46,18.80
2006,07,08,10,47,18.80
2006,07,08,10,48,18.80
2006,07,08,10,49,18.90
2006,07,08,10,50,19.00
2006,07,08,10,51,19.10
2006,07,08,10,52,19.30
2006,07,08,10,53,19.40
2006,07,08,10,54,19.60
2006,07,08,10,55,19.70
2006,07,08,10,56,19.90
2006,07,08,10,57,19.90
2006,07,08,10,58,20.00
2006,07,08,10,59,20.00
2006,07,08,11,00,20.10
2006,07,08,11,01,20.10
2006,07,08,11,02,20.10
2006,07,08,11,03,20.10
2006,07,08,11,04,20.20
2006,07,08,11,05,20.20
2006,07,08,11,06,20.20
2006,07,08,11,07,20.30
2006,07,08,11,08,20.40
2006,07,08,11,09,20.50
2006,07,08,11,10,20.50
2006,07,08,11,11,20.60
2006,07,08,11,12,20.50
2006,07,08,11,13,20.40
2006,07,08,11,14,20.30
2006,07,08,11,15,20.20
2006,07,08,11,16,20.10
2006,07,08,11,17,20.00
2006,07,08,11,18,19.90
2006,07,08,11,19,19.80
2006,07,08,11,20,19.60
2006,07,08,11,21,19.60
2006,07,08,11,22,19.60
2006,07,08,11,23,19.40
2006,07,08,11,24,19.30
2006,07,08,11,25,19.20
2006,07,08,11,26,19.20
2006,07,08,11,27,19.30
2006,07,08,11,28,19.40
2006,07,08,11,29,19.40
2006,07,08,11,30,19.50
2006,07,08,11,31,19.40
2006,07,08,11,32,19.30
2006,07,08,11,33,19.30
2006,07,08,11,34,19.20
2006,07,08,11,35,19.20
2006,07,08,11,36,19.30
2006,07,08,11,37,19.30
2006,07,08,11,38,19.30
2006,07,08,11,39,19.40
2006,07,08,11,40,19.40
2006,07,08,11,41,19.40
2006,07,08,11,42,19.50
2006,07,08,11,43,19.60
2006,07,08,11,44,19.60
2006,07,08,11,45,19.70
2006,07,08,11,46,19.80
2006,07,08,11,47,19.80
2006,07,08,11,48,19.90
2006,07,08,11,49,19.90
2006,07,08,11,50,20.00
2006,07,08,11,51,20.10
2006,07,08,11,52,20.20
2006,07,08,11,53,20.20
2006,07,08,11,54,20.30
2006,07,08,11,55,20.30
2006,07,08,11,56,20.20
2006,07,08,11,57,20.20
2006,07,08,11,58,20.20
2006,07,08,11,59,20.10
2006,07,08,12,00,20.10
2006,07,08,12,01,20.20
2006,07,08,12,02,20.20
2006,07,08,12,03,20.20
2006,07,08,12,04,20.20
2006,07,08,12,05,20.20
2006,07,08,12,06,20.10
2006,07,08,12,07,20.10
2006,07,08,12,08,20.20
2006,07,08,12,09,20.20
2006,07,08,12,10,20.20
2006,07,08,12,11,20.20
2006,07,08,12,12,20.20
2006,07,08,12,13,20.20
2006,07,08,12,14,20.20
2006,07,08,12,15,20.20
2006,07,08,12,16,20.20
2006,07,08,12,17,20.20
2006,07,08,12,18,20.20
2006,07,08,12,19,20.20
2006,07,08,12,20,20.30
2006,07,08,12,21,20.50
2006,07,08,12,22,20.70
2006,07,08,12,23,20.80
2006,07,08,12,24,20.70
2006,07,08,12,25,20.60
2006,07,08,12,26,20.50
2006,07,08,12,27,20.40
2006,07,08,12,28,20.20
2006,07,08,12,29,20.20
2006,07,08,12,30,20.20
2006,07,08,12,31,20.20
2006,07,08,12,32,20.30
2006,07,08,12,33,20.40
2006,07,08,12,34,20.60
2006,07,08,12,35,20.80
2006,07,08,12,36,20.90
2006,07,08,12,37,20.90
2006,07,08,12,38,20.80
2006,07,08,12,39,20.70
2006,07,08,12,40,20.70
2006,07,08,12,41,20.70
2006,07,08,12,42,20.60
2006,07,08,12,43,20.70
2006,07,08,12,44,20.80
2006,07,08,12,45,20.80
2006,07,08,12,46,20.90
2006,07,08,12,47,21.00
2006,07,08,12,48,21.10
2006,07,08,12,49,21.30
2006,07,08,12,50,21.30
2006,07,08,12,51,21.30
2006,07,08,12,52,21.10
2006,07,08,12,53,20.90
2006,07,08,12,54,20.90
2006,07,08,12,55,20.90
2006,07,08,12,56,21.10
2006,07,08,12,57,21.20
2006,07,08,12,58,21.30
2006,07,08,12,59,21.40
2006,07,08,13,00,21.40
2006,07,08,13,01,21.40
2006,07,08,13,02,21.40
2006,07,08,13,03,21.40
2006,07,08,13,04,21.40
2006,07,08,13,05,21.40
2006,07,08,13,06,21.30
2006,07,08,13,07,21.20
2006,07,08,13,08,21.10
2006,07,08,13,09,21.10
2006,07,08,13,10,21.00
2006,07,08,13,11,21.00
2006,07,08,13,12,20.90
2006,07,08,13,13,20.90
2006,07,08,13,14,20.90
2006,07,08,13,15,20.80
2006,07,08,13,16,20.70
2006,07,08,13,17,20.70
2006,07,08,13,18,20.70
2006,07,08,13,19,20.80
2006,07,08,13,20,20.80
2006,07,08,13,21,20.70
2006,07,08,13,22,20.70
2006,07,08,13,23,20.50
2006,07,08,13,24,20.50
2006,07,08,13,25,20.50
2006,07,08,13,26,20.60
2006,07,08,13,27,20.70
2006,07,08,13,28,20.70
2006,07,08,13,29,20.70
2006,07,08,13,30,20.50
2006,07,08,13,31,20.50
2006,07,08,13,32,20.40
2006,07,08,13,33,20.20
2006,07,08,13,34,20.20
2006,07,08,13,35,20.20
2006,07,08,13,36,20.40
2006,07,08,13,37,20.50
2006,07,08,13,38,20.60
2006,07,08,13,39,20.60
2006,07,08,13,40,20.60
2006,07,08,13,41,20.60
2006,07,08,13,42,20.50
2006,07,08,13,43,20.40
2006,07,08,13,44,20.30
2006,07,08,13,45,20.20
2006,07,08,13,46,20.40
2006,07,08,13,47,20.30
2006,07,08,13,48,20.30
2006,07,08,13,49,20.30
2006,07,08,13,50,20.30
2006,07,08,13,51,20.20
2006,07,08,13,52,20.20
2006,07,08,13,53,20.20
2006,07,08,13,54,20.10
2006,07,08,13,55,20.10
2006,07,08,13,56,20.10
2006,07,08,13,57,20.10
2006,07,08,13,58,20.20
2006,07,08,13,59,20.30
2006,07,08,14,00,20.20
2006,07,08,14,01,20.20
2006,07,08,14,02,20.30
2006,07,08,14,03,20.40
2006,07,08,14,04,20.40
2006,07,08,14,05,20.40
2006,07,08,14,06,20.50
2006,07,08,14,07,20.50
2006,07,08,14,08,20.60
2006,07,08,14,09,20.60
2006,07,08,14,10,20.60
2006,07,08,14,11,20.60
2006,07,08,14,12,20.70
2006,07,08,14,13,20.70
2006,07,08,14,14,20.80
2006,07,08,14,15,20.80
2006,07,08,14,16,20.90
2006,07,08,14,17,20.90
2006,07,08,14,18,21.00
2006,07,08,14,19,21.00
2006,07,08,14,20,21.00
2006,07,08,14,21,21.10
2006,07,08,14,22,21.10
2006,07,08,14,23,21.20
2006,07,08,14,24,21.30
2006,07,08,14,25,21.30
2006,07,08,14,26,21.10
2006,07,08,14,27,21.00
2006,07,08,14,28,21.00
2006,07,08,14,29,21.10
2006,07,08,14,30,21.20
2006,07,08,14,31,21.30
2006,07,08,14,32,21.30
2006,07,08,14,33,21.30
2006,07,08,14,34,21.50
2006,07,08,14,35,21.60
2006,07,08,14,36,21.70
2006,07,08,14,37,21.70
2006,07,08,14,38,21.80
2006,07,08,14,39,21.70
2006,07,08,14,40,21.60
2006,07,08,14,41,21.60
2006,07,08,14,42,21.60
2006,07,08,14,43,21.60
2006,07,08,14,44,21.60
2006,07,08,14,45,21.70
2006,07,08,14,46,21.70
2006,07,08,14,47,21.70
2006,07,08,14,48,21.80
2006,07,08,14,49,21.80
2006,07,08,14,50,21.90
2006,07,08,14,51,21.90
2006,07,08,14,52,22.00
2006,07,08,14,53,22.00
2006,07,08,14,54,22.00
2006,07,08,14,55,21.90
2006,07,08,14,56,21.80
2006,07,08,14,57,21.80
2006,07,08,14,58,21.70
2006,07,08,14,59,21.80
2006,07,08,15,00,21.80
2006,07,08,15,01,21.80
2006,07,08,15,02,21.80
2006,07,08,15,03,21.80
2006,07,08,15,04,21.70
2006,07,08,15,05,21.70
2006,07,08,15,06,21.70
2006,07,08,15,07,21.60
2006,07,08,15,08,21.50
2006,07,08,15,09,21.50
2006,07,08,15,10,21.60
2006,07,08,15,11,21.60
2006,07,08,15,12,21.60
2006,07,08,15,13,21.80
2006,07,08,15,14,21.80
2006,07,08,15,15,21.80
2006,07,08,15,16,21.80
2006,07,08,15,17,21.80
2006,07,08,15,18,21.70
2006,07,08,15,19,21.70
2006,07,08,15,20,21.70
2006,07,08,15,21,21.60
2006,07,08,15,22,21.60
2006,07,08,15,23,21.80
2006,07,08,15,24,22.00
2006,07,08,15,25,22.00
2006,07,08,15,26,22.00
2006,07,08,15,27,22.00
2006,07,08,15,28,22.00
2006,07,08,15,29,22.00
2006,07,08,15,30,22.00
2006,07,08,15,31,22.00
2006,07,08,15,32,22.10
2006,07,08,15,33,22.20
2006,07,08,15,34,22.30
2006,07,08,15,35,22.40
2006,07,08,15,36,22.50
2006,07,08,15,37,22.50
2006,07,08,15,38,22.60
2006,07,08,15,39,22.60
2006,07,08,15,40,22.60
2006,07,08,15,41,22.50
2006,07,08,15,42,22.50
2006,07,08,15,43,22.50
2006,07,08,15,44,22.50
2006,07,08,15,45,22.50
2006,07,08,15,46,22.50
2006,07,08,15,47,22.50
2006,07,08,15,48,22.50
2006,07,08,15,49,22.40
2006,07,08,15,50,22.40
2006,07,08,15,51,22.50
2006,07,08,15,52,22.50
2006,07,08,15,53,22.60
2006,07,08,15,54,22.60
2006,07,08,15,55,22.70
2006,07,08,15,56,22.80
2006,07,08,15,57,22.80
2006,07,08,15,58,22.80
2006,07,08,15,59,22.80
2006,07,08,16,00,22.80
2006,07,08,16,01,22.90
2006,07,08,16,02,22.90
2006,07,08,16,03,22.80
2006,07,08,16,04,22.90
2006,07,08,16,05,22.90
2006,07,08,16,06,22.80
2006,07,08,16,07,22.90
2006,07,08,16,08,22.90
2006,07,08,16,09,22.80
2006,07,08,16,10,22.80
2006,07,08,16,11,22.80
2006,07,08,16,12,22.90
2006,07,08,16,13,22.90
2006,07,08,16,14,22.90
2006,07,08,16,15,23.00
2006,07,08,16,16,23.00
2006,07,08,16,17,23.00
2006,07,08,16,18,23.20
2006,07,08,16,19,23.20
2006,07,08,16,20,23.10
2006,07,08,16,21,23.00
2006,07,08,16,22,22.90
2006,07,08,16,23,22.90
2006,07,08,16,24,22.90
2006,07,08,16,25,22.90
2006,07,08,16,26,22.90
2006,07,08,16,27,23.00
2006,07,08,16,28,23.10
2006,07,08,16,29,23.00
2006,07,08,16,30,22.90
2006,07,08,16,31,23.00
2006,07,08,16,32,23.10
2006,07,08,16,33,23.10
2006,07,08,16,34,23.00
2006,07,08,16,35,22.90
2006,07,08,16,36,22.90
2006,07,08,16,37,22.90
2006,07,08,16,38,22.90
2006,07,08,16,39,22.90
2006,07,08,16,40,22.90
2006,07,08,16,41,23.00
2006,07,08,16,42,23.10
2006,07,08,16,43,23.10
2006,07,08,16,44,23.10
2006,07,08,16,45,23.20
2006,07,08,16,46,23.20
2006,07,08,16,47,23.20
2006,07,08,16,48,23.20
2006,07,08,16,49,23.20
2006,07,08,16,50,23.10
2006,07,08,16,51,23.00
2006,07,08,16,52,22.90
2006,07,08,16,53,22.80
2006,07,08,16,54,22.80
2006,07,08,16,55,22.90
2006,07,08,16,56,22.90
2006,07,08,16,57,23.00
2006,07,08,16,58,23.10
2006,07,08,16,59,23.20
2006,07,08,17,00,23.20
2006,07,08,17,01,23.20
2006,07,08,17,02,23.30
2006,07,08,17,03,23.30
2006,07,08,17,04,23.30
2006,07,08,17,05,23.30
2006,07,08,17,06,23.30
2006,07,08,17,07,23.30
2006,07,08,17,08,23.20
2006,07,08,17,09,23.20
2006,07,08,17,10,23.10
2006,07,08,17,11,23.10
2006,07,08,17,12,23.00
2006,07,08,17,13,22.90
2006,07,08,17,14,22.70
2006,07,08,17,15,22.60
2006,07,08,17,16,22.60
2006,07,08,17,17,22.50
2006,07,08,17,18,22.50
2006,07,08,17,19,22.60